Regional Weather Roundup
Issued by NWS

Home | Current Version | Previous Version | Graphics & Text | Print | Product List | Glossary On
Versions: 1 2 3 4 5 6 7 8 9 10 11 12 13 14 15 16 17 18 19 20 21 22 23 24 25 26 27 28 29 30 31 32 33 34 35 36 37 38 39 40 41 42 43 44 45 46 47 48 49 50
000
ASUS45 KCYS 220410
RWRWY

WYOMING REGIONAL WEATHER ROUNDUP
NATIONAL WEATHER SERVICE CHEYENNE WY
1000 PM MDT MON JUL 21 2014

NOTE:  "FAIR" INDICATES FEW OR NO CLOUDS BELOW 12,000 FEET
WITH NO SIGNIFICANT WEATHER AND/OR OBSTRUCTIONS TO VISIBILITY.

WYZ001-220500-
YELLOWSTONE NATIONAL PARK

CITY           SKY/WX    TMP DP  RH WIND       PRES   REMARKS
LK YELLOWSTONE   N/A     50  48  93 CALM      30.39S
W YELLOWSTONE  NOT AVBL

$$
WYZ002>013-054>058-071-098>099-220500-
NORTHERN WYOMING

CITY           SKY/WX    TMP DP  RH WIND       PRES   REMARKS
JACKSON        CLOUDY    63  45  51 S8        30.32R
CODY           MOCLDY    70  46  43 S5        30.18R
GREYBULL       CLOUDY    78  46  32 N18G28    30.09R
WORLAND        PTCLDY    72  48  42 NE8       30.09R
SHERIDAN       TSTM      66  58  75 W18       30.17R
BUFFALO        PTCLDY    70  50  49 NW16G25   30.19R
GILLETTE       MOCLDY    66  57  72 NW8       30.11R
HULETT         TSTM      64  61  88 MISG      30.16  VSB 3/4
NEWCASTLE      FAIR      77  43  29 N12       30.08

$$
WYZ014>020-022>026-101>103-220500-
CENTRAL WYOMING

CITY           SKY/WX    TMP DP  RH WIND       PRES   REMARKS
BIG PINEY      CLEAR     62  41  46 N15       30.33R
PINEDALE       PTCLDY    55  43  62 NW9       30.35R
DUBOIS         FAIR      54  43  66 NW8       30.35R
LANDER         CLEAR     67  42  40 SE10      30.18R
RIVERTON       CLEAR     68  39  34 NW16      30.18R
CASPER         CLEAR     72  48  42 E9        30.16R
DOUGLAS        CLEAR     77  46  33 N13       30.13R

$$
WYZ021-027>030-104>119-220500-
SOUTHERN WYOMING

CITY           SKY/WX    TMP DP  RH WIND       PRES   REMARKS
EVANSTON       PTCLDY    69  29  22 SW5       30.30R
KEMMERER       CLEAR    N/A N/A N/A W3        30.32R
ROCK SPRINGS   CLEAR     74  28  18 W12       30.27R
DIXON          FAIR      70  33  25 N7        30.28R
RAWLINS        PTCLDY    73  29  19 NW13      30.27R
SARATOGA       FAIR      72  30  21 S9        30.30R
LARAMIE        CLEAR     62  35  36 SW7       30.31R
CHEYENNE       PTCLDY    70  46  42 W8        30.23R
TORRINGTON     PTCLDY    71  54  54 E8        30.02R
PINE BLUFFS    FAIR      72  45  37 CALM      30.16R

$$



USA.gov is the U.S. government's official web portal to all federal, state and local government web resources and services.